Weather past 2 weeks in Bantam, Cocos Islands

Now
84 °F

Passing clouds.


Feels Like: 92 °F
Forecast: 78 / 83 °F
Wind: 16 mph from Southeast

Location: Cocos Island Airport

Current Time: May 26, 2015 at 1:29:02 PM

Latest Report: May 26, 2015 at 1:00 PM


Visibility: N/A

Pressure: 29.92 "Hg

Humidity: 74%

Dew point: 75 °F

Location of BantamLocation

Historic Weather in Bantam — Graph

°F

Bantam temperature yesterday

Maximum temperature yesterday: 82 °F (at 9:00 AM)
Minimum temperature yesterday: 77 °F (at 12:00 AM)
Average temperature yesterday: 80 °F

Past Weeks' High & Low Weather Summary

 TemperatureHumidityPressure
High86 °F (May 11, 2:00 PM)94% (May 17, 2:00 PM)29.98 "Hg (May 17, 2:00 PM)
Low77 °F (May 25, 12:00 AM)70% (May 11, 2:00 PM)29.80 "Hg (May 17, 2:21 PM)
Average82 °F78%29.90 "Hg
* Reported May 11 11:30 AM — May 26 12:00 Noon, Bantam, Weather by CustomWeather, © 2015

Note: Actual official high and low records may vary slightly from our data, if they occured in-between our weather recording intervals... More about our weather records

Advertising

Bantam weather history for previous 24 hours

 ConditionsComfort  
Time TempWeatherWind HumidityBarometerVisibility
12:00 PM
Tue, May 26
82 °FPassing clouds.16 mph74%29.92 "HgN/A
11:30 AM82 °FScattered clouds.16 mph79%29.95 "HgN/A
11:00 AM82 °FScattered clouds.16 mph74%29.95 "HgN/A
10:30 AM82 °FBroken clouds.16 mph74%29.95 "HgN/A
10:00 AM82 °FPassing clouds.15 mph79%29.95 "HgN/A
9:30 AM82 °FPassing clouds.17 mph74%29.95 "HgN/A
9:00 AM82 °FPassing clouds.15 mph74%29.95 "HgN/A
8:30 AM82 °FScattered clouds.14 mph74%29.95 "HgN/A
8:00 AM82 °FScattered clouds.15 mph74%29.95 "HgN/A
7:30 AM81 °FScattered clouds.14 mph74%29.95 "HgN/A
7:00 AM81 °FPassing clouds.14 mph79%29.92 "HgN/A
6:30 AM81 °FPassing clouds.13 mph79%29.92 "HgN/A
6:00 AM81 °FPassing clouds.15 mph79%29.92 "HgN/A
5:30 AM81 °FClear.15 mph79%29.92 "HgN/A
5:00 AM81 °FPassing clouds.15 mph79%29.89 "HgN/A
4:30 AM81 °FPassing clouds.14 mph79%29.89 "HgN/A
4:00 AM81 °FPassing clouds.15 mph74%29.89 "HgN/A
3:00 AM77 °FSprinkles. Partly cloudy.8 mph89%29.92 "HgN/A
2:30 AM77 °FRain showers. Overcast.17 mph83%29.92 "Hg2 mi
2:00 AM81 °FPartly cloudy.12 mph84%29.92 "HgN/A
1:30 AM81 °FPassing clouds.10 mph79%29.92 "HgN/A
1:00 AM81 °FWarm.10 mph79%29.95 "HgN/A
12:30 AM81 °FOvercast.12 mph79%29.95 "HgN/A
12:00 AM81 °FMostly cloudy.13 mph79%29.95 "HgN/A
11:30 PM
Mon, May 25
81 °FPartly cloudy.13 mph74%29.95 "HgN/A
11:00 PM81 °FClear.15 mph79%29.95 "HgN/A
10:30 PM81 °FClear.17 mph79%29.95 "HgN/A
10:00 PM81 °FMostly cloudy.14 mph79%29.95 "HgN/A
9:30 PM81 °FPassing clouds.16 mph74%29.95 "HgN/A
9:00 PM81 °FPassing clouds.16 mph74%29.95 "HgN/A
8:30 PM81 °FPassing clouds.14 mph74%29.98 "HgN/A
8:00 PM81 °FMostly cloudy.13 mph79%29.98 "HgN/A
7:30 PM81 °FPartly cloudy.15 mph70%29.95 "HgN/A
7:00 PM81 °FPassing clouds.15 mph74%29.95 "HgN/A
6:30 PM81 °FSunny.16 mph70%29.92 "HgN/A
6:00 PM81 °FBroken clouds.17 mph70%29.92 "HgN/A
5:30 PM81 °FScattered clouds.15 mph74%29.92 "HgN/A
5:00 PM81 °FScattered clouds.18 mph70%29.89 "HgN/A
4:30 PM81 °FBroken clouds.17 mph74%29.89 "HgN/A
4:00 PM82 °FBroken clouds.20 mph70%29.86 "HgN/A
3:30 PM82 °FPartly sunny.22 mph70%29.86 "HgN/A
3:00 PM82 °FBroken clouds.20 mph70%29.86 "HgN/A
2:30 PM82 °FBroken clouds.20 mph70%29.86 "HgN/A
2:00 PM82 °FRain showers. Broken clouds.20 mph74%29.89 "HgN/A
1:30 PM82 °FBroken clouds.20 mph74%29.89 "HgN/A
1:00 PM82 °FBroken clouds.21 mph74%29.89 "HgN/A
Weather by CustomWeather, © 2015

See weather overviewHow to use our weather pages